User: anonymous   Login
Location: Campillo
(40.8621°N, 4.2488°W)
Time: 04:38:12
(UTC+00:00)
Language:

M-CUBED/EXP-1 PRIME - Orbit

View from above orbital plane
View from above orbital plane
View from above satellite
View from above satellite

Ground track
Ground track

The orbit data is extracted from the following two-line orbital elements,

1 37855U 11061F   21289.24538308  .00004771  00000-0  23096-3 0  9994
2 37855 101.7224 275.4071 0164970  71.2154 290.6876 15.08337627544384
Epoch (UTC): 16 October 2021 05:53:21
Eccentricity: 0.0164970
inclination: 101.7224°
perigee height: 427 km
apogee height: 655 km
right ascension of ascending node: 275.4071°
argument of perigee: 71.2154°
revolutions per day: 15.08337627
mean anomaly at epoch: 290.6876°
orbit number at epoch: 54438

The dashed part of the orbit path shows where the satellite is in the earth's shadow,  

DLR